• In Uzbekistan
  • List of Countries
  • For 7 days
  • Water Temperature
  • Satellite Maps
  • Weather Map
  • Weather Widgets
  • user-avatar
    Login

    Hourly Weather Melbourne

    Today, 8 December, Thursday

    Time Temperature Precipitation Wind Pressure Humidity
    00:00 +21°C° 0 mm 3 mps 751 mmHg 42%
    01:00 +22°C° 0 mm 4 mps 750 mmHg 40%
    02:00 +23°C° 0 mm 5 mps 749 mmHg 39%
    03:00 +23°C° 0 mm 5 mps 748 mmHg 38%
    04:00 +23°C° 0 mm 8 mps 747 mmHg 33%
    05:00 +22°C° 0.5 mm 7 mps 747 mmHg 46%
    06:00 +20°C° 0.5 mm 7 mps 747 mmHg 59%
    07:00 +19°C° 0.5 mm 6 mps 747 mmHg 71%
    08:00 +19°C° 0.1 mm 6 mps 747 mmHg 71%
    09:00 +19°C° 0.1 mm 5 mps 747 mmHg 71%
    10:00 +20°C° 0.1 mm 5 mps 747 mmHg 71%
    11:00 +21°C° 0.1 mm 5 mps 747 mmHg 62%
    12:00 +22°C° 0.1 mm 5 mps 747 mmHg 53%
    13:00 +23°C° 0.1 mm 5 mps 747 mmHg 44%
    14:00 +23°C° 0 mm 5 mps 747 mmHg 40%
    15:00 +23°C° 0 mm 6 mps 748 mmHg 37%
    16:00 +23°C° 0 mm 6 mps 748 mmHg 33%
    17:00 +21°C° 0 mm 6 mps 749 mmHg 42%
    18:00 +19°C° 0 mm 6 mps 750 mmHg 51%
    19:00 +16°C° 0 mm 6 mps 750 mmHg 60%
    20:00 +15°C° 0.2 mm 6 mps 751 mmHg 64%
    21:00 +14°C° 0.2 mm 5 mps 752 mmHg 69%
    22:00 +13°C° 0.2 mm 5 mps 753 mmHg 74%
    23:00 +12°C° 0.2 mm 5 mps 754 mmHg 73%

    Tomorrow, 9 December, Friday

    Time Temperature Precipitation Wind Pressure Humidity
    00:00 +12°C° 0.2 mm 5 mps 754 mmHg 71%
    01:00 +12°C° 0.2 mm 5 mps 755 mmHg 70%
    02:00 +10°C° 0.1 mm 5 mps 755 mmHg 69%
    03:00 +10°C° 0.1 mm 5 mps 756 mmHg 68%
    04:00 +10°C° 0.1 mm 5 mps 756 mmHg 67%
    05:00 +10°C° 0 mm 5 mps 757 mmHg 65%
    06:00 +12°C° 0 mm 5 mps 758 mmHg 63%
    07:00 +12°C° 0 mm 5 mps 759 mmHg 61%
    08:00 +12°C° 0.1 mm 5 mps 760 mmHg 59%
    09:00 +13°C° 0.1 mm 5 mps 760 mmHg 57%
    10:00 +13°C° 0.1 mm 5 mps 761 mmHg 55%
    11:00 +14°C° 0 mm 5 mps 761 mmHg 53%
    12:00 +15°C° 0 mm 4 mps 761 mmHg 50%
    13:00 +17°C° 0 mm 4 mps 762 mmHg 48%
    14:00 +17°C° 0 mm 4 mps 762 mmHg 49%
    15:00 +17°C° 0 mm 4 mps 762 mmHg 50%
    16:00 +17°C° 0 mm 4 mps 762 mmHg 50%
    17:00 +15°C° 0 mm 4 mps 763 mmHg 54%
    18:00 +14°C° 0 mm 4 mps 763 mmHg 58%
    19:00 +13°C° 0 mm 3 mps 764 mmHg 61%
    20:00 +12°C° 0 mm 3 mps 764 mmHg 67%
    21:00 +12°C° 0 mm 2 mps 765 mmHg 73%
    22:00 +10°C° 0 mm 2 mps 765 mmHg 80%
    23:00 +9°C° 0 mm 2 mps 765 mmHg 83%

    Day after tomorrow, 10 December, Saturday

    Time Temperature Precipitation Wind Pressure Humidity
    00:00 +10°C° 0 mm 1 mps 765 mmHg 86%
    01:00 +9°C° 0 mm 1 mps 765 mmHg 90%
    02:00 +9°C° 0 mm 1 mps 765 mmHg 90%
    03:00 +9°C° 0 mm 1 mps 765 mmHg 91%
    04:00 +8°C° 0 mm 1 mps 765 mmHg 91%
    05:00 +10°C° 0 mm 1 mps 765 mmHg 85%
    06:00 +11°C° 0 mm 1 mps 766 mmHg 79%
    07:00 +13°C° 0 mm 1 mps 766 mmHg 73%
    08:00 +15°C° 0 mm 1 mps 766 mmHg 65%
    09:00 +18°C° 0 mm 1 mps 766 mmHg 57%
    10:00 +20°C° 0 mm 1 mps 765 mmHg 49%
    11:00 +21°C° 0 mm 1 mps 765 mmHg 46%
    12:00 +21°C° 0 mm 2 mps 765 mmHg 43%
    13:00 +24°C° 0 mm 2 mps 764 mmHg 40%
    14:00 +24°C° 0 mm 2 mps 764 mmHg 41%
    15:00 +22°C° 0 mm 3 mps 764 mmHg 42%
    16:00 +22°C° 0 mm 3 mps 763 mmHg 43%
    17:00 +21°C° 0 mm 3 mps 764 mmHg 51%
    18:00 +19°C° 0 mm 3 mps 764 mmHg 59%
    19:00 +17°C° 0 mm 3 mps 764 mmHg 67%
    20:00 +16°C° 0 mm 3 mps 765 mmHg 75%
    21:00 +14°C° 0 mm 2 mps 765 mmHg 84%
    22:00 +12°C° 0 mm 2 mps 766 mmHg 92%
    23:00 +12°C° 0 mm 2 mps 766 mmHg 91%

    11 December, Sunday

    Time Temperature Precipitation Wind Pressure Humidity
    00:00 +12°C° 0 mm 1 mps 765 mmHg 91%
    01:00 +12°C° 0 mm 1 mps 765 mmHg 90%
    02:00 +12°C° 0 mm 1 mps 765 mmHg 90%
    03:00 +13°C° 0 mm 1 mps 765 mmHg 89%
    04:00 +13°C° 0 mm 1 mps 765 mmHg 89%
    05:00 +13°C° 0 mm 1 mps 765 mmHg 84%
    06:00 +14°C° 0 mm 1 mps 766 mmHg 80%
    07:00 +15°C° 0 mm 1 mps 766 mmHg 76%
    08:00 +18°C° 0 mm 1 mps 766 mmHg 68%
    09:00 +19°C° 0 mm 1 mps 766 mmHg 59%
    10:00 +20°C° 0 mm 2 mps 766 mmHg 50%
    11:00 +21°C° 0 mm 2 mps 765 mmHg 46%
    12:00 +23°C° 0 mm 2 mps 765 mmHg 42%
    13:00 +24°C° 0 mm 3 mps 765 mmHg 38%
    14:00 +24°C° 0 mm 3 mps 764 mmHg 39%
    15:00 +24°C° 0 mm 3 mps 764 mmHg 39%
    16:00 +24°C° 0 mm 3 mps 764 mmHg 40%
    17:00 +21°C° 0 mm 3 mps 764 mmHg 46%
    18:00 +19°C° 0 mm 3 mps 764 mmHg 53%
    19:00 +18°C° 0 mm 2 mps 764 mmHg 59%
    20:00 +16°C° 0 mm 2 mps 764 mmHg 68%
    21:00 +14°C° 0 mm 2 mps 765 mmHg 76%
    22:00 +12°C° 0 mm 2 mps 765 mmHg 84%
    23:00 +11°C° 0 mm 1 mps 765 mmHg 88%

    12 December, Monday

    Time Temperature Precipitation Wind Pressure Humidity
    00:00 +10°C° 0 mm 1 mps 764 mmHg 91%
    01:00 +9°C° 0 mm 1 mps 764 mmHg 95%
    02:00 +9°C° 0 mm 1 mps 763 mmHg 95%
    03:00 +8°C° 0 mm 1 mps 763 mmHg 96%
    04:00 +7°C° 0 mm 0 mps 763 mmHg 97%
    05:00 +11°C° 0 mm 1 mps 763 mmHg 84%
    06:00 +14°C° 0 mm 1 mps 763 mmHg 71%
    07:00 +18°C° 0 mm 1 mps 763 mmHg 58%
    08:00 +21°C° 0 mm 1 mps 762 mmHg 50%
    09:00 +25°C° 0 mm 2 mps 762 mmHg 42%
    10:00 +28°C° 0 mm 2 mps 762 mmHg 33%
    11:00 +29°C° 0 mm 2 mps 761 mmHg 29%
    12:00 +31°C° 0 mm 2 mps 760 mmHg 26%
    13:00 +32°C° 0 mm 2 mps 759 mmHg 22%
    14:00 +34°C° 0 mm 2 mps 758 mmHg 21%
    15:00 +34°C° 0 mm 2 mps 757 mmHg 20%
    16:00 +35°C° 0 mm 2 mps 756 mmHg 19%
    17:00 +32°C° 0 mm 2 mps 756 mmHg 25%
    18:00 +30°C° 0 mm 2 mps 756 mmHg 30%
    19:00 +27°C° 0 mm 2 mps 756 mmHg 36%
    20:00 +26°C° 0 mm 2 mps 756 mmHg 37%
    21:00 +25°C° 0 mm 2 mps 755 mmHg 37%
    22:00 +23°C° 0 mm 2 mps 755 mmHg 38%
    23:00 +24°C° 0 mm 3 mps 754 mmHg 36%

    13 December, Tuesday

    Time Temperature Precipitation Wind Pressure Humidity
    00:00 +24°C° 0 mm 3 mps 754 mmHg 35%
    01:00 +24°C° 0 mm 3 mps 753 mmHg 33%
    02:00 +25°C° 0 mm 4 mps 752 mmHg 31%
    03:00 +25°C° 0 mm 4 mps 752 mmHg 29%
    04:00 +26°C° 0 mm 5 mps 751 mmHg 27%
    05:00 +27°C° 0 mm 5 mps 751 mmHg 31%
    06:00 +28°C° 0 mm 6 mps 751 mmHg 34%
    07:00 +28°C° 0 mm 6 mps 751 mmHg 37%
    08:00 +30°C° 0 mm 6 mps 751 mmHg 33%
    09:00 +33°C° 0 mm 7 mps 751 mmHg 29%
    10:00 +34°C° 0 mm 7 mps 750 mmHg 25%
    11:00 +34°C° 0 mm 6 mps 751 mmHg 25%
    12:00 +33°C° 0 mm 6 mps 751 mmHg 26%
    13:00 +33°C° 0 mm 5 mps 751 mmHg 26%
    14:00 +32°C° 0.1 mm 5 mps 751 mmHg 30%
    15:00 +30°C° 0.1 mm 5 mps 751 mmHg 34%
    16:00 +29°C° 0.1 mm 5 mps 750 mmHg 37%
    17:00 +27°C° 0 mm 4 mps 751 mmHg 42%
    18:00 +25°C° 0 mm 3 mps 752 mmHg 46%
    19:00 +22°C° 0 mm 3 mps 752 mmHg 51%
    20:00 +20°C° 0 mm 3 mps 753 mmHg 57%
    21:00 +18°C° 0 mm 3 mps 753 mmHg 64%
    22:00 +17°C° 0 mm 3 mps 753 mmHg 71%
    23:00 +16°C° 0 mm 3 mps 753 mmHg 73%
    Show more